Location: Ham Street
(51.0500°N, 0.8500°E)
Time: 19:58:23
(UTC+00:00)

Daily predictions for brighter satellites

Satellite Brightness Start Highest point End
(mag) Time Altitude Azimuth Time Altitude Azimuth Time Altitude Azimuth
Kosmos-1783 4.3 20:51:38 10° NW 20:55:02 78° SW 21:01:58 10° SE
Cosmos 1300 3.7 20:57:03 10° NNW 21:00:27 42° W 21:03:49 10° SSW
ARGOS Delta rocket 4.4 20:57:22 10° S 21:01:38 50° W 21:05:56 10° NNW
Cosmos 1908 Rocket 4.0 20:58:11 10° N 21:02:24 47° ENE 21:06:34 10° SSE
Cosmos 2219 Rocket 2.6 20:59:32 10° NW 21:05:09 62° WSW 21:10:45 10° SSE
MOS 1 Rocket 3.6 20:59:52 10° SSE 21:05:12 80° ENE 21:10:19 10° NNW
ATLAS CENTAUR R/B 3.1 21:05:28 10° WSW 21:08:42 33° NW 21:12:04 10° NNE
ERS-1 Rocket 3.2 21:05:05 10° S 21:10:05 70° WSW 21:15:08 10° NNW
Cosmos 1570 Rocket 4.1 21:06:01 10° NNW 21:11:25 80° ENE 21:16:46 10° SSE
USA 281 4.5 21:05:57 10° ESE 21:11:38 33° NE 21:17:21 10° NNW
Terra 2.0 21:08:41 10° S 21:13:23 74° WSW 21:18:08 10° NNW
SPOT 5 4.0 21:12:22 10° SSW 21:16:26 37° W 21:20:41 10° NNW
Iridium 51 4.4 21:16:45 10° S 21:20:59 71° E 21:24:59 10° N
Meteor 1-4 Rocket 2.3 21:18:12 10° SSW 21:21:10 69° WNW 21:24:12 10° N
GP-B 4.1 21:19:42 10° NNE 21:23:39 31° E 21:27:24 11° SE
ARIANE 5 R/B 4.2 21:20:32 10° ESE 21:23:58 23° ENE 21:27:27 10° N
Aureole 3 4.2 21:20:43 10° SSW 21:25:20 76° WNW 21:31:09 10° N
Landsat 4 3.7 21:24:39 10° S 21:28:04 68° WSW 21:31:30 10° NNW
NOSS 0 Rocket 4.1 21:23:07 10° NNW 21:29:23 78° ENE 21:35:24 11° SE
COSMOS 2428 2.8 21:25:59 10° NNW 21:31:42 78° WSW 21:37:11 11° SSE
Cosmos 1953 2.3 21:28:14 10° NNW 21:32:04 75° W 21:35:51 10° S
Cosmos 1455 2.1 21:30:13 10° NNW 21:33:44 76° W 21:37:14 10° S
Cosmos 2360 Rocket 4.1 21:29:32 10° NW 21:33:47 22° WSW 21:38:01 10° SSW
CZ-4C R/B 2.4 21:30:28 10° S 21:34:36 37° ESE 21:39:41 10° NE
SJ 16-02 2.4 21:30:46 10° SW 21:34:57 48° WNW 21:39:11 10° NNE
BREEZE-M DEB (TANK) 4.3 21:13:27 10° WSW 21:34:59 80° S 21:39:50 10° E
SPOT 3 Rocket 3.9 21:30:57 10° S 21:36:04 65° WSW 21:41:16 10° NNW
ATLAS 2AS CENTAUR R/B 4.3 21:33:01 10° WNW 21:38:15 24° WSW 21:43:22 10° SSW
BREEZE-M DEB (TANK) 4.5 21:39:51 13° SE 21:39:51 13° SE 21:41:01 10° ESE
Cosmos 1745 Rocket 4.4 21:34:14 10° SSE 21:40:19 51° E 21:46:26 10° NNE
Spot 2 Rocket 4.2 21:35:48 10° S 21:40:44 51° W 21:45:44 10° NNW
Nadezhda 1 Rocket 4.1 21:36:30 10° N 21:42:46 70° ENE 21:48:28 12° SSE
Cosmos 1703 Rocket 3.6 21:42:13 10° S 21:46:39 81° E 21:51:07 10° NNE
Cosmos 1242 Rocket 1.8 21:44:55 10° SSW 21:47:39 79° WNW 21:50:22 10° N
Okean 1-7 3.4 21:44:33 10° SSW 21:48:50 65° WNW 21:53:08 10° N
Cosmos 1315 Rocket 3.5 21:46:28 10° SSW 21:50:23 55° WNW 21:54:20 10° N
Cosmos 2208 Rocket 4.2 21:48:49 10° NNW 21:53:57 64° WSW 21:58:30 13° S
SeaSat 1 3.2 21:52:49 11° S 21:57:16 44° WSW 22:01:58 10° NW
Landsat 5 3.4 21:53:34 10° NNE 21:57:42 82° ESE 22:01:57 10° SSW
H-2A R/B 3.9 21:56:48 11° ESE 22:00:12 27° ENE 22:03:45 10° N
COSMOS 2455 2.9 21:54:29 10° SSW 22:00:26 66° ESE 22:06:26 10° NE
CZ-2C R/B 4.4 21:58:01 10° NNE 22:02:07 36° E 22:05:09 16° SSE
Cosmos 158 Rocket 4.4 21:57:34 10° NNW 22:02:44 57° WSW 22:07:05 14° S
NOSS 8 (E) 4.3 21:59:53 10° SW 22:03:42 87° NW 22:06:47 10° NE
Cosmos 1408 2.3 22:02:05 19° SSE 22:04:01 52° E 22:06:57 10° NNE
Cosmos 1174 4.1 22:00:32 10° NW 22:05:35 85° NE 22:08:42 17° SE
Ariane Rocket 4.3 22:01:35 10° SSW 22:06:12 34° W 22:10:50 10° NNW
Cosmos 405 Rocket 3.7 22:03:53 10° N 22:07:23 35° ENE 22:09:55 16° SE
ALOS 2 4.3 22:05:00 10° ESE 22:08:27 23° ENE 22:11:55 10° N
SL-4 R/B 3.3 22:05:18 10° W 22:08:31 25° SW 22:10:35 17° S
SL-16 R/B 3.3 22:07:30 10° NNW 22:12:50 38° NE 22:18:07 10° ESE
BlueWalker 3 2.0 22:09:37 10° W 22:13:22 75° NNW 22:17:08 10° ENE
Cosmos 1486 Rocket 3.9 22:09:28 10° SSW 22:14:40 77° ESE 22:19:54 10° NNE
Cosmos 2237 Rocket 2.2 22:09:38 10° NNW 22:15:20 85° WSW 22:19:45 17° SSE
CENTAUR R/B 3.4 22:11:56 16° SSE 22:15:29 29° ESE 22:21:09 10° NE
Meteor 2-5 Rocket 4.3 22:11:13 16° SSE 22:15:40 46° E 22:21:10 10° NNE
Cosmos 2227 Rocket 3.0 22:18:49 17° SSE 22:22:27 34° ESE 22:27:31 10° NE
Cosmos 1980 3.9 22:24:00 10° NW 22:29:38 65° WSW 22:33:48 18° SSE
Sich 1 Rocket 4.3 22:27:56 10° N 22:32:07 42° ENE 22:34:57 18° SE
USA 234 3.2 22:26:48 10° ENE 22:33:21 71° SE 22:39:52 10° SW
Cosmos 2242 Rocket 3.7 22:31:20 15° S 22:35:03 86° W 22:39:39 10° N
Cosmos 1354 Rocket 4.2 22:31:07 16° S 22:35:14 58° ESE 22:40:26 10° NNE
Okean 1 Rocket 4.2 22:34:06 10° N 22:38:05 33° ENE 22:40:58 16° SE
Cosmos 1709 Rocket 4.0 22:33:28 14° S 22:39:04 88° E 22:45:26 10° N
Cosmos 2297 Rocket 2.1 22:35:46 10° SSW 22:41:24 80° ESE 22:47:05 10° NNE
NOSS 3 (A) 4.1 22:46:57 42° N 22:46:57 42° N 22:48:14 10° NE
Cosmos 371 Rocket 3.7 22:45:46 10° SW 22:50:32 62° WNW 22:55:21 10° NNE
Terra 4.4 22:50:43 10° W 22:51:50 11° W 22:52:57 10° WNW
Cosmos 2219 4.0 22:51:46 20° SSE 22:54:45 34° ESE 22:59:45 10° NE
USA 281 3.3 22:50:46 19° SSE 22:55:41 75° WSW 23:02:19 10° NNW
PSLV R/B 3.8 22:52:40 10° NNE 22:56:41 87° ESE 22:59:12 22° SSW
Meteor 1-24 Rocket 3.7 22:52:47 17° S 22:57:17 89° WNW 23:02:50 10° NNE
Cosmos 1703 3.5 22:55:32 19° SSW 22:58:03 59° WNW 23:01:42 10° N
ARIANE 5 R/B 3.2 22:57:21 20° SSW 23:00:06 49° W 23:04:22 10° NNW
Cosmos 1025 Rocket 4.4 23:00:15 18° SE 23:02:19 26° E 23:05:54 10° NNE
Orbus 7S? 4.1 22:59:40 10° NW 23:02:22 35° NNE 23:04:59 10° E
Cosmos 2263 Rocket 3.2 23:01:07 20° SSE 23:03:47 29° ESE 23:08:29 10° NE
EXPRESS MD2 4.3 23:02:19 10° WSW 23:02:52 14° WSW 23:02:52 14° WSW
Cosmos 2184 Rocket 4.5 22:59:57 20° SSE 23:04:12 51° E 23:10:22 10° NNE
Cosmos 1455 Rocket 4.4 23:04:21 10° N 23:08:19 30° ENE 23:11:17 15° SE
Cosmos 2084 Rocket 3.8 23:04:31 10° SW 23:08:45 65° NW 23:12:51 10° NE
Cosmos 1378 Rocket 3.5 23:10:39 24° S 23:13:18 87° E 23:17:44 10° N
Cosmos 1674 Rocket 3.5 23:14:09 25° S 23:16:37 80° E 23:20:58 10° NNE
Cosmos 1263 4.1 23:13:40 10° N 23:16:55 87° E 23:17:58 37° SSE
Spot 2 4.4 23:15:35 23° SSE 23:18:46 89° WSW 23:23:45 10° NNW
NOSS 3-2 (A) 3.6 23:18:38 23° S 23:21:43 46° ESE 23:27:34 10° NE
Cosmos 1777 Rocket 4.5 23:17:07 10° SW 23:22:19 60° WNW 23:27:34 10° NNE
Cosmos 2154 Rocket 4.3 23:18:32 21° SSE 23:22:37 57° E 23:28:48 10° NNE
CZ-4C R/B 3.0 23:18:04 10° WSW 23:22:46 51° NW 23:28:46 10° NE
Cosmos 1825 1.8 23:23:13 32° S 23:24:41 86° E 23:28:07 10° N
PSLV R/B 4.0 23:24:50 10° NNE 23:28:53 45° E 23:30:49 26° SSE
Cosmos 2151 Rocket 4.1 23:25:07 10° NNW 23:29:23 50° W 23:31:48 24° SSW
Cosmos 1538 Rocket 4.0 23:26:30 10° NNW 23:31:43 70° WSW 23:34:51 24° S
Cosmos 1818 3.6 23:26:50 10° NW 23:32:22 88° SW 23:36:27 18° SE
NOSS 3-2 (C) 4.3 23:30:22 21° SSE 23:32:32 27° ESE 23:37:32 10° ENE
Okean 2 Rocket 3.6 23:29:59 10° NNW 23:34:20 50° W 23:36:50 23° SSW
H-2A R/B 3.4 23:32:47 22° SSW 23:34:59 38° W 23:38:56 10° NNW
Cosmos 1892 2.8 23:34:58 27° SSW 23:36:41 60° WNW 23:40:12 10° N
Cosmos 405 Rocket 4.5 23:39:22 10° NW 23:42:18 22° W 23:44:11 15° SW
Cosmos 1328 3.6 23:41:31 30° S 23:43:20 85° E 23:47:15 10° NNE
ALOS 2 3.1 23:42:15 25° SSW 23:44:30 50° W 23:48:48 10° NNW
Cosmos 332 Rocket 4.5 23:42:23 13° SW 23:46:36 53° WNW 23:51:24 10° NNE
COSMOS 2455 4.4 23:41:14 10° WSW 23:46:46 36° NW 23:52:21 10° NNE
Meteor 2-11 Rocket 4.5 23:45:26 23° S 23:49:22 75° E 23:55:28 10° NNE
Aureole 1 Rocket 3.1 23:48:39 29° S 23:50:40 66° ESE 23:55:44 10° NNE
Cosmos 1937 Rocket 4.2 23:48:31 23° SSE 23:51:14 41° ESE 23:56:07 10° NE
BlueWalker 3 2.3 23:48:02 10° WNW 23:51:46 63° N 23:55:29 10° E
